DW6885 Weather Reports


Display with metric or nautical units.
time (UTC)temp
F
wind
direction
speed
MPH
gust
MPH
rain 1hr
in
rain 24hr
in
rain mn
in
humidity
%
barometer
mb
20140829031805 57 307 1.0 4.0 0.00 0.00 0.00 75 1014.8
20140829030555 58 11 1.0 7.0 0.00 0.00 0.00 75 1014.7
20140829030305 57 300 0.0 9.0 0.00 0.00 0.00 75 1014.8
20140829025554 58 309 1.0 7.0 0.00 0.00 0.00 76 1014.7
20140829024611 57 99 1.0 4.0 0.00 0.00 0.00 78 1014.8
20140829024555 58 337 1.0 3.0 0.00 0.00 0.00 76 1014.7
20140829023108 57 307 0.0 6.0 0.00 0.00 0.00 77 1014.6
20140829021606 57 10 0.0 8.0 0.00 0.00 0.00 80 1014.5
20140829020106 56 310 0.0 4.0 0.00 0.00 0.00 83 1014.3
20140829014703 56 311 0.0 1.0 0.00 0.00 0.00 82 1014.4
20140829014553 57 311 0.0 1.0 0.00 0.00 0.00 82 1014.4
20140829013109 57 338 0.0 2.0 0.00 0.00 0.00 81 1014.2
20140829012553 57 338 0.0 1.0 0.00 0.00 0.00 82 1014.1
20140829011608 57 338 0.0 2.0 0.00 0.00 0.00 81 1014.0
20140829011554 58 338 0.0 2.0 0.00 0.00 0.00 81 1014.1
20140829010205 57 338 0.0 0.0 0.00 0.00 0.00 82 1013.8
20140829004604 58 338 0.0 5.0 0.00 0.00 0.00 82 1013.6
20140829003554 58 27 0.0 0.0 0.00 0.00 0.00 83 1013.5
20140829003009 58 27 0.0 0.0 0.00 0.00 0.00 82 1013.3
20140829002554 59 27 0.0 1.0 0.00 0.00 0.00 82 1013.3
20140829001553 59 27 0.0 0.0 0.00 0.00 0.00 80 1013.0
20140829001504 59 27 0.0 0.0 0.00 0.00 0.00 80 1013.0
20140829000553 60 27 0.0 0.0 0.00 0.00 0.00 79 1012.8
20140829000009 60 27 0.0 0.0 0.00 0.00 0.00 78 1012.7
20140828235553 61 27 0.0 0.0 0.00 0.00 0.00 77 1012.5
20140828234553 62 27 0.0 0.0 0.00 0.00 0.00 75 1012.3
20140828234506 61 27 0.0 0.0 0.00 0.00 0.00 75 1012.3
20140828233553 63 27 0.0 1.0 0.00 0.00 0.00 73 1012.1
20140828233010 62 27 0.0 1.0 0.00 0.00 0.00 72 1012.0
20140828231508 63 355 0.0 1.0 0.00 0.00 0.00 70 1011.8
20140828230553 65 355 0.0 6.0 0.00 0.00 0.00 68 1011.7
20140828230007 64 344 1.0 6.0 0.00 0.00 0.00 67 1011.6
20140828224552 66 101 1.0 2.0 0.00 0.00 0.00 66 1011.3
20140828224405 65 101 0.0 2.0 0.00 0.00 0.00 66 1011.3
20140828222906 66 319 0.0 7.0 0.00 0.00 0.00 68 1011.1
20140828221406 67 115 0.0 3.0 0.00 0.00 0.00 62 1010.8
20140828220552 67 342 0.0 7.0 0.00 0.00 0.00 68 1010.8
20140828215908 67 321 1.0 5.0 0.00 0.00 0.00 62 1010.7
20140828215553 67 333 2.0 3.0 0.00 0.00 0.00 60 1010.7
20140828214554 68 315 0.0 5.0 0.00 0.00 0.00 60 1010.7
20140828214406 68 315 0.0 5.0 0.00 0.00 0.00 59 1010.6
20140828213553 70 89 2.0 5.0 0.00 0.00 0.00 56 1010.3
20140828213004 70 102 1.0 5.0 0.00 0.00 0.00 59 1010.3
20140828211553 72 336 3.0 9.0 0.00 0.00 0.00 54 1010.1
20140828211409 71 262 2.0 6.0 0.00 0.00 0.00 54 1010.1
20140828210554 72 261 1.0 5.0 0.00 0.00 0.00 55 1010.0
20140828205909 71 355 1.0 4.0 0.00 0.00 0.00 54 1009.8
20140828205554 72 30 2.0 3.0 0.00 0.00 0.00 55 1009.8
20140828204304 71 351 2.0 6.0 0.00 0.00 0.00 53 1009.7
20140828202806 70 299 2.0 8.0 0.00 0.00 0.00 56 1009.4
20140828202554 70 271 2.0 6.0 0.00 0.00 0.00 55 1009.6
20140828201306 71 293 1.0 8.0 0.00 0.00 0.00 52 1009.6
20140828200553 74 346 3.0 10.0 0.00 0.00 0.00 50 1009.4
20140828195808 73 24 1.0 5.0 0.00 0.00 0.00 55 1009.3
20140828194554 74 350 2.0 7.0 0.00 0.00 0.00 50 1009.1
20140828194405 74 355 2.0 7.0 0.00 0.00 0.00 48 1009.1
20140828193553 74 320 3.0 7.0 0.00 0.00 0.00 51 1009.0
20140828192806 74 190 2.0 7.0 0.00 0.00 0.00 49 1008.9
20140828192553 75 313 2.0 10.0 0.00 0.00 0.00 52 1009.0
20140828191553 74 12 3.0 14.0 0.00 0.00 0.00 50 1008.8
20140828191306 73 42 3.0 14.0 0.00 0.00 0.00 51 1008.8
20140828185706 73 337 2.0 11.0 0.00 0.00 0.00 52 1008.7
20140828185554 73 12 5.0 12.0 0.00 0.00 0.00 52 1008.7
20140828184553 73 86 2.0 10.0 0.00 0.00 0.00 51 1008.7
20140828184206 73 251 2.0 10.0 0.00 0.00 0.00 52 1008.8
20140828182705 72 333 1.0 8.0 0.00 0.00 0.00 55 1008.7
20140828182552 73 304 2.0 7.0 0.00 0.00 0.00 54 1008.7
20140828181552 73 325 2.0 7.0 0.00 0.00 0.00 53 1008.6
20140828180554 74 326 2.0 7.0 0.00 0.00 0.00 54 1008.6
20140828175708 73 241 2.0 7.0 0.00 0.00 0.00 52 1008.6
20140828174207 72 19 1.0 10.0 0.00 0.00 0.00 54 1008.7
20140828173553 73 330 2.0 9.0 0.00 0.00 0.00 52 1008.7
20140828172725 72 316 2.0 10.0 0.00 0.00 0.00 54 1008.6
20140828171229 73 24 0.0 6.0 0.00 0.00 0.00 64 1008.7
20140828165609 71 328 1.0 7.0 0.00 0.00 0.00 59 1008.8
20140828164553 71 231 2.0 7.0 0.00 0.00 0.00 62 1009.1
20140828164107 71 347 1.0 6.0 0.00 0.00 0.00 61 1009.1
20140828162612 70 321 0.0 6.0 0.00 0.00 0.00 63 1009.0
20140828162555 70 344 1.0 6.0 0.00 0.00 0.00 64 1009.0
20140828161555 71 294 2.0 6.0 0.00 0.00 0.00 63 1009.0
20140828161109 71 157 0.0 4.0 0.00 0.00 0.00 65 1009.1
20140828155704 71 267 2.0 5.0 0.00 0.00 0.00 60 1009.2
20140828155556 71 3 1.0 7.0 0.00 0.00 0.00 64 1009.2
20140828154554 70 211 0.0 6.0 0.00 0.00 0.00 68 1009.3
20140828154204 69 155 1.0 6.0 0.00 0.00 0.00 67 1009.3
20140828153553 70 353 1.0 6.0 0.00 0.00 0.00 67 1009.4
20140828152615 70 23 1.0 7.0 0.00 0.00 0.00 66 1009.3
20140828152553 70 174 2.0 7.0 0.00 0.00 0.00 65 1009.3
20140828151555 70 325 1.0 5.0 0.00 0.00 0.00 68 1009.6
20140828151022 69 208 0.0 5.0 0.00 0.00 0.00 69 1009.5
20140828150553 69 324 1.0 5.0 0.00 0.00 0.00 67 1009.6
20140828145606 69 307 1.0 5.0 0.00 0.00 0.00 67 1009.6
20140828144554 70 181 1.0 5.0 0.00 0.00 0.00 68 1009.6
20140828144008 69 22 0.0 5.0 0.00 0.00 0.00 65 1009.7
20140828143553 70 102 1.0 5.0 0.00 0.00 0.00 68 1009.6
20140828142505 69 269 1.0 6.0 0.00 0.00 0.00 66 1009.7
20140828141552 69 39 2.0 9.0 0.00 0.00 0.00 70 1009.6
20140828141012 68 355 1.0 9.0 0.00 0.00 0.00 71 1009.7
20140828140554 69 356 3.0 9.0 0.00 0.00 0.00 72 1009.7
20140828135508 68 263 0.0 8.0 0.00 0.00 0.00 74 1009.7
20140828134011 68 281 1.0 6.0 0.00 0.00 0.00 75 1009.7
20140828132506 67 346 1.0 6.0 0.00 0.00 0.00 77 1009.7
20140828131553 67 276 1.0 8.0 0.00 0.00 0.00 78 1009.8
20140828131009 66 345 2.0 8.0 0.00 0.00 0.00 78 1009.8
20140828130552 66 317 2.0 7.0 0.00 0.00 0.00 80 1009.9
20140828125407 65 355 1.0 7.0 0.00 0.00 0.00 80 1009.8
20140828124553 65 40 1.0 6.0 0.00 0.00 0.00 82 1009.9
20140828123907 65 344 1.0 7.0 0.00 0.00 0.00 83 1010.0
20140828122553 64 333 1.0 3.0 0.00 0.00 0.00 85 1009.9
20140828122405 64 355 0.0 4.0 0.00 0.00 0.00 85 1009.9
20140828120904 63 147 0.0 4.0 0.00 0.00 0.00 87 1010.0
20140828120553 63 335 0.0 3.0 0.00 0.00 0.00 87 1010.0
20140828115553 63 22 0.0 5.0 0.00 0.00 0.00 88 1010.0
20140828115409 62 22 0.0 5.0 0.00 0.00 0.00 88 1010.0
20140828114553 62 5 0.0 5.0 0.00 0.00 0.00 88 1009.9
20140828113907 61 355 1.0 5.0 0.00 0.00 0.00 89 1009.9
20140828113553 61 352 1.0 5.0 0.00 0.00 0.00 91 1009.8
20140828112551 60 352 0.0 3.0 0.00 0.00 0.00 93 1009.8
20140828112409 60 351 0.0 4.0 0.00 0.00 0.00 93 1009.8
20140828111552 60 354 1.0 3.0 0.00 0.00 0.00 94 1009.8
20140828110905 59 316 0.0 0.0 0.00 0.00 0.00 94 1009.8
20140828105552 59 315 0.0 2.0 0.00 0.00 0.00 95 1009.7
20140828105403 58 315 0.0 0.0 0.00 0.01 0.00 95 1009.7
20140828104552 58 315 0.0 2.0 0.00 0.00 0.00 95 1009.6
20140828103810 58 297 0.0 3.0 0.00 0.01 0.00 96 1009.5
20140828103553 58 297 0.0 3.0 0.00 0.01 0.00 96 1009.5
20140828102553 58 223 0.0 1.0 0.00 0.01 0.00 96 1009.5
20140828102307 57 223 0.0 1.0 0.00 0.01 0.00 96 1009.4
20140828101553 58 223 0.0 1.0 0.00 0.01 0.00 96 1009.5
20140828100805 57 223 0.0 0.0 0.00 0.01 0.00 96 1009.4
20140828100553 58 223 0.0 0.0 0.00 0.01 0.00 95 1009.4
20140828095555 58 223 0.0 0.0 0.00 0.01 0.00 95 1009.3
20140828095403 58 223 0.0 0.0 0.00 0.01 0.00 95 1009.3
20140828094553 59 223 0.0 0.0 0.00 0.01 0.00 95 1009.1
20140828093809 58 223 0.0 0.0 0.00 0.01 0.00 95 1009.1
20140828092309 59 223 0.0 0.0 0.00 0.01 0.00 95 1009.1
20140828091553 59 223 0.0 0.0 0.00 0.01 0.00 95 1009.0
20140828090809 59 223 0.0 0.0 0.00 0.01 0.00 94 1009.0
20140828090552 60 223 0.0 0.0 0.00 0.01 0.00 94 1008.9
20140828085305 60 223 0.0 0.0 0.00 0.01 0.00 94 1008.9
20140828083703 60 223 0.0 0.0 0.00 0.01 0.00 93 1009.0
20140828083554 61 223 0.0 0.0 0.00 0.01 0.00 93 1009.0
20140828082552 61 223 0.0 0.0 0.00 0.01 0.00 92 1009.1
20140828082205 61 223 0.0 0.0 0.00 0.01 0.00 92 1009.1
20140828081553 62 223 0.0 0.0 0.00 0.01 0.00 92 1009.0
20140828080703 61 223 0.0 0.0 0.00 0.01 0.00 91 1009.0
20140828080554 62 223 0.0 0.0 0.00 0.01 0.00 91 1009.1
20140828075554 62 223 0.0 0.0 0.00 0.01 0.00 90 1008.9
20140828075210 62 223 0.0 0.0 0.00 0.01 0.00 90 1008.9
20140828073709 63 223 0.0 0.0 0.00 0.01 0.00 90 1008.8
20140828073553 63 223 0.0 0.0 0.00 0.01 0.00 89 1008.7
20140828072203 63 223 0.0 0.0 0.00 0.01 0.00 89 1008.8
20140828070701 63 223 0.0 0.0 0.00 0.01 0.00 90 1008.9
20140828065303 64 223 0.0 0.0 0.00 0.01 0.00 91 1008.9
20140828063609 65 317 0.0 1.0 0.00 0.01 0.00 92 1009.0
20140828063607 64 317 0.0 1.0 0.00 0.01 0.00 91 1009.0
20140828062203 65 317 0.0 1.0 0.00 0.01 0.00 92 1009.1
20140828061706 66 317 0.0 1.0 0.00 0.01 0.00 92 1009.2
20140828060804 66 317 0.0 0.0 0.00 0.01 0.00 91 1009.2
20140828060712 66 317 0.0 0.0 0.00 0.01 0.00 91 1009.3
20140828055303 66 317 0.0 0.0 0.00 0.01 0.00 91 1009.3
20140828053703 67 317 0.0 0.0 0.00 0.01 0.00 91 1009.6
20140828052658 68 317 0.0 0.0 0.00 0.01 0.00 91 1009.6
20140828052304 67 317 0.0 0.0 0.00 0.01 0.00 91 1009.7
20140828051605 68 317 0.0 5.0 0.00 0.01 0.00 91 1009.7
20140828050904 67 296 0.0 5.0 0.00 0.01 0.00 92 1009.7
20140828050712 68 296 2.0 5.0 0.00 0.01 0.00 91 1009.6
20140828045616 68 175 0.0 1.0 0.00 0.01 0.00 91 1009.7
20140828045203 68 175 0.0 1.0 0.00 0.01 0.00 91 1009.6
20140828043804 68 175 0.0 2.0 0.00 0.01 0.00 91 1009.8
20140828043708 68 173 0.0 1.0 0.00 0.01 0.00 91 1009.8
20140828042605 68 173 0.0 1.0 0.00 0.01 0.00 91 1009.8
20140828042303 68 173 0.0 2.0 0.00 0.01 0.00 91 1009.9
20140828041607 68 184 0.0 1.0 0.00 0.01 0.00 91 1009.7
20140828040710 68 203 0.0 0.0 0.00 0.01 0.00 91 1009.7
20140828040507 68 203 0.0 0.0 0.00 0.01 0.00 91 1009.6
20140828035006 68 203 0.0 2.0 0.00 0.01 0.01 91 1009.6
20140828034553 68 203 0.0 3.0 0.00 0.01 0.01 91 1009.5
20140828033508 68 138 0.0 2.0 0.00 0.01 0.01 93 1009.4